Tracking 27422 objects as of 29-May-2023
HD Live streaming from Space Station
objects crossing your sky now

ATLAS 5 CENTAUR DEB

Track ATLAS 5 CENTAUR DEB now!


NORAD ID: 43949
Int'l Code: 2014-055C
Perigee: 6,810.7 km
Apogee: 34,430.0 km
Inclination: 20.4 °
Period: 735.5 minutes
Semi major axis: 26991 km
RCS: Unknown
Launch date: September 17, 2014
Source: United States (US)
Launch site: AIR FORCE EASTERN TEST RANGE (AFETR)

Note: This is SATELLITE DEBRIS
Your satellite tracking list
Your tracking list is empty




NASA's NSSDC Master Catalog

Two Line Element Set (TLE):
1 43949U 14055C   23137.79672601 -.00000152  00000-0  00000-0 0  9997
2 43949  20.3793 214.8759 5116317  42.2411 347.4976  1.95778679 11662
Source of the keplerian elements: AFSPC